Location: Makakahi
(40.6833°S, 175.6000°E)
Time: 23:24:00
(UTC+00:00)

FENGYUN 1C DEB - Pass Details

Date: 13 December 2024
Orbit: 841 x 907 km, 98.9° (Epoch: 11 January)

Event Time Altitude Azimuth Distance (km) Brightness Sun altitude
Rises 11:02:14 0° 186° (S) 3,492 ? -24.1°
Reaches altitude 10° 11:06:05 10° 212° (SSW) 2,530 ? -24.3°
Maximum altitude 11:08:26 13° 237° (WSW) 2,317 ? -24.4°
Drops below altitude 10° 11:10:46 10° 262° (W) 2,502 ? -24.6°
Sets 11:14:33 0° 289° (WNW) 3,418 ? -24.7°
